{"data":{"norad_id":48466,"intl_designator":"2021-040AQ","name":"STARLINK-2687","alt_names":[],"object_type":"PAYLOAD","status":"ACTIVE","operator":null,"country":"US","launch_date":"2021-05-09","launch_site_code":"AFETR","launch_vehicle":null,"mission":null,"orbit_class":"UNKNOWN","rcs_meters":null,"size_class":null,"mass_kg":null,"dimensions":null,"purposes":["comms"],"wikipedia_slug":null,"has_3d_model":false,"image_url":null,"decayed_at":null,"tle_current":{"epoch":"2026-09-19T23:53:36.616416Z","epoch_age_seconds":80827,"freshness":"FRESH","line1":"1 48466U 21040AQ  26262.99556269 -.00000473  00000+0 -34620-5 0  9999","line2":"2 48466  53.1598   6.8458 0001273  85.2572 274.8575 15.31705841296284","mean_motion":15.31705841,"eccentricity":0.0001273,"inclination_deg":53.1598,"raan_deg":6.8458,"arg_perigee_deg":85.2572,"mean_anomaly_deg":274.8575,"bstar":-3.462e-6,"rev_number":29628,"period_min":94.012829451631,"perigee_km":469.85072373893,"apogee_km":471.59444338891,"semimajor_km":6848.8595835639,"source":"CELESTRAK","updated_at":"2026-09-20T09:00:39.128262Z"}}}